QPF
0.00 0.00 0.00 0.00 0.00 0.00 0.00 0.00 0.00 0.00 0.00 0.00 0.00 0.00 0.00 0.00 0.00 0.00 0.00 0.00 0.00 0.00 0.00 0.00 0.00 0.00 0.00 0.00 0.00 0.00 0.00 0.00 0.00 0.00 0.00 0.00 0.00 0.00 0.00 0.00 0.00 0.01 0.01
0.00 0.00 0.00 0.00 0.00 0.00 0.00 0.00 0.00 0.00 0.00 0.00 0.00 0.00 0.00 0.00 0.00 0.00 0.00 0.00 0.00 0.00 0.00 0.00 0.00 0.00 0.00 0.00 0.00 0.00 0.00 0.00 0.00 0.00 0.01 0.01 0.00 0.00 0.00 0.00 0.00 0.00 0.01
0.00 0.00 0.00 0.00 0.00 0.00 0.00 0.00 0.00 0.00 0.00 0.00 0.00 0.00 0.00 0.00 0.00 0.00 0.00 0.00 0.00 0.00 0.00 0.00 0.00 0.00 0.00 0.00 0.00 0.00 0.00 0.00 0.00 0.00 0.03 0.06 0.04 0.01 0.00 0.00 0.00 0.00 0.01
0.00 0.00 0.00 0.00 0.00 0.00 0.00 0.00 0.00 0.00 0.00 0.00 0.00 0.00 0.00 0.00 0.00 0.00 0.00 0.00 0.00 0.00 0.00 0.00 0.00 0.00 0.00 0.00 0.00 0.00 0.00 0.00 0.00 0.00 0.01 0.04 0.05 0.06 0.03 0.00 0.00 0.00 0.00
0.00 0.00 0.00 0.00 0.00 0.00 0.00 0.00 0.00 0.00 0.00 0.00 0.00 0.00 0.00 0.00 0.00 0.00 0.00 0.00 0.00 0.00 0.00 0.00 0.00 0.00 0.00 0.00 0.00 0.00 0.00 0.00 0.00 0.00 0.01 0.01 0.01 0.03 0.05 0.02 0.00 0.00 0.00
0.00 0.00 0.00 0.00 0.00 0.00 0.00 0.00 0.00 0.00 0.00 0.00 0.00 0.00 0.00 0.00 0.00 0.00 0.00 0.00 0.00 0.00 0.00 0.00 0.00 0.00 0.00 0.00 0.00 0.00 0.00 0.00 0.00 0.00 0.01 0.01 0.02 0.03 0.05 0.04 0.01 0.00 0.00
0.00 0.00 0.00 0.00 0.00 0.00 0.00 0.00 0.00 0.00 0.00 0.00 0.00 0.00 0.00 0.00 0.00 0.00 0.00 0.00 0.00 0.00 0.00 0.00 0.00 0.00 0.00 0.00 0.00 0.00 0.00 0.00 0.00 0.00 0.00 0.01 0.02 0.03 0.05 0.04 0.02 0.01 0.00
0.00 0.00 0.00 0.00 0.00 0.00 0.00 0.00 0.00 0.00 0.00 0.00 0.00 0.00 0.00 0.00 0.00 0.00 0.00 0.00 0.00 0.00 0.00 0.00 0.00 0.00 0.00 0.00 0.00 0.00 0.00 0.00 0.00 0.00 0.00 0.01 0.01 0.02 0.04 0.05 0.05 0.03 0.01
0.00 0.00 0.00 0.00 0.00 0.00 0.00 0.00 0.00 0.00 0.00 0.00 0.00 0.00 0.00 0.00 0.00 0.00 0.00 0.00 0.00 0.00 0.00 0.00 0.00 0.00 0.00 0.00 0.00 0.00 0.00 0.00 0.00 0.00 0.00 0.01 0.01 0.02 0.02 0.03 0.04 0.06 0.04
0.00 0.00 0.00 0.00 0.00 0.00 0.00 0.00 0.00 0.00 0.00 0.00 0.00 0.00 0.00 0.00 0.00 0.00 0.00 0.00 0.00 0.00 0.00 0.00 0.00 0.00 0.00 0.00 0.00 0.00 0.00 0.00 0.00 0.00 0.00 0.01 0.02 0.02 0.02 0.02 0.02 0.03 0.05
0.00 0.00 0.00 0.00 0.00 0.00 0.00 0.00 0.00 0.00 0.00 0.00 0.00 0.00 0.00 0.00 0.00 0.00 0.00 0.00 0.00 0.00 0.00 0.00 0.00 0.00 0.00 0.00 0.00 0.00 0.00 0.00 0.00 0.00 0.01 0.01 0.02 0.02 0.02 0.02 0.02 0.02 0.03
0.00 0.00 0.00 0.00 0.00 0.00 0.00 0.00 0.00 0.00 0.00 0.00 0.00 0.00 0.00 0.00 0.00 0.00 0.00 0.00 0.00 0.00 0.00 0.00 0.01 0.01 0.01 0.01 0.01 0.01 0.01 0.01 0.01 0.01 0.01 0.02 0.02 0.02 0.02 0.02 0.02 0.02 0.02
0.00 0.00 0.00 0.00 0.00 0.00 0.00 0.00 0.00 0.00 0.00 0.00 0.00 0.00 0.00 0.00 0.00 0.00 0.00 0.00 0.00 0.00 0.00 0.00 0.01 0.02 0.03 0.04 0.03 0.02 0.02 0.02 0.02 0.02 0.03 0.03 0.03 0.03 0.02 0.03 0.03 0.02 0.02
0.00 0.00 0.00 0.00 0.00 0.00 0.00 0.00 0.00 0.00 0.00 0.00 0.00 0.00 0.00 0.00 0.00 0.00 0.00 0.00 0.00 0.00 0.00 0.00 0.01 0.02 0.05 0.09 0.09 0.06 0.05 0.04 0.03 0.03 0.04 0.04 0.05 0.05 0.06 0.07 0.05 0.03 0.03
0.00 0.00 0.00 0.00 0.00 0.00 0.00 0.00 0.00 0.00 0.00 0.00 0.00 0.00 0.00 0.00 0.00 0.00 0.00 0.00 0.00 0.00 0.00 0.00 0.00 0.02 0.08 0.19 0.19 0.11 0.08 0.06 0.05 0.04 0.04 0.05 0.05 0.09 0.15 0.12 0.08 0.05 0.04
0.00 0.00 0.00 0.00 0.00 0.00 0.00 0.00 0.00 0.00 0.00 0.00 0.00 0.00 0.00 0.00 0.00 0.00 0.00 0.00 0.00 0.00 0.00 0.00 0.00 0.02 0.07 0.20 0.18 0.09 0.07 0.07 0.07 0.06 0.05 0.04 0.04 0.03 0.04 0.06 0.07 0.06 0.04
0.00 0.00 0.00 0.00 0.00 0.00 0.00 0.00 0.00 0.00 0.00 0.00 0.00 0.00 0.00 0.00 0.00 0.00 0.00 0.00 0.00 0.00 0.00 0.00 0.00 0.02 0.06 0.17 0.13 0.06 0.05 0.06 0.08 0.08 0.06 0.05 0.03 0.02 0.01 0.01 0.01 0.01 0.01
0.00 0.00 0.00 0.00 0.00 0.00 0.00 0.00 0.00 0.00 0.00 0.00 0.00 0.00 0.00 0.00 0.00 0.00 0.00 0.00 0.00 0.00 0.00 0.00 0.00 0.01 0.05 0.13 0.11 0.03 0.02 0.04 0.05 0.08 0.09 0.07 0.05 0.03 0.01 0.01 0.00 0.00 0.01
0.00 0.00 0.00 0.00 0.00 0.00 0.00 0.00 0.00 0.00 0.00 0.00 0.00 0.00 0.00 0.00 0.00 0.00 0.00 0.00 0.00 0.00 0.00 0.00 0.00 0.01 0.03 0.08 0.09 0.02 0.01 0.02 0.03 0.05 0.09 0.07 0.05 0.03 0.01 0.00 0.00 0.00 0.00
0.00 0.00 0.00 0.00 0.00 0.00 0.00 0.00 0.00 0.00 0.00 0.00 0.00 0.00 0.00 0.00 0.00 0.00 0.00 0.00 0.00 0.00 0.00 0.00 0.00 0.00 0.01 0.04 0.07 0.03 0.00 0.02 0.03 0.04 0.07 0.07 0.04 0.02 0.01 0.00 0.00 0.00 0.00
0.00 0.00 0.00 0.00 0.00 0.00 0.00 0.00 0.00 0.00 0.00 0.00 0.00 0.00 0.00 0.00 0.00 0.00 0.00 0.00 0.00 0.00 0.00 0.00 0.00 0.00 0.00 0.01 0.04 0.03 0.01 0.01 0.02 0.03 0.05 0.05 0.02 0.01 0.01 0.00 0.00 0.01 0.00
0.00 0.00 0.00 0.00 0.00 0.00 0.00 0.00 0.00 0.00 0.00 0.00 0.00 0.00 0.00 0.00 0.00 0.00 0.00 0.00 0.00 0.00 0.00 0.00 0.00 0.00 0.00 0.00 0.02 0.02 0.01 0.00 0.00 0.00 0.01 0.00 0.00 0.00 0.00 0.00 0.00 0.00 0.00
0.00 0.00 0.00 0.00 0.00 0.00 0.00 0.00 0.00 0.00 0.00 0.00 0.00 0.00 0.00 0.00 0.00 0.00 0.00 0.00 0.00 0.00 0.00 0.00 0.00 0.00 0.00 0.00 0.01 0.01 0.00 0.00 0.00 0.00 0.00 0.00 0.00 0.00 0.00 0.00 0.00 0.00 0.00
0.00 0.00 0.00 0.00 0.00 0.00 0.00 0.00 0.00 0.00 0.00 0.00 0.00 0.00 0.00 0.00 0.00 0.00 0.00 0.00 0.00 0.01 0.02 0.01 0.00 0.00 0.00 0.01 0.02 0.01 0.00 0.00 0.00 0.00 0.00 0.00 0.00 0.00 0.00 0.00 0.00 0.00 0.00
0.00 0.00 0.00 0.00 0.00 0.00 0.00 0.00 0.00 0.00 0.00 0.00 0.00 0.00 0.00 0.00 0.00 0.00 0.00 0.00 0.00 0.02 0.04 0.02 0.02 0.02 0.01 0.02 0.03 0.02 0.01 0.00 0.00 0.00 0.00 0.00 0.00 0.00 0.00 0.00 0.00 0.00 0.00
0.00 0.00 0.00 0.00 0.00 0.00 0.00 0.00 0.00 0.00 0.00 0.00 0.00 0.00 0.00 0.00 0.00 0.00 0.00 0.00 0.00 0.00 0.01 0.01 0.02 0.02 0.02 0.03 0.03 0.02 0.01 0.01 0.00 0.00 0.00 0.00 0.00 0.00 0.00 0.00 0.00 0.00 0.00
MSLP
1035.46 1035.78 1036.08 1036.33 1036.52 1036.61 1036.59 1036.44 1036.16 1035.79 1035.37 1034.91 1034.47 1034.05 1033.67 1033.30 1032.93 1032.52 1032.06 1031.53 1030.95 1030.33 1029.71 1029.11 1028.55 1028.03 1027.54 1027.03 1026.44 1025.74 1024.87 1023.83 1022.62 1021.30 1019.92 1018.56 1017.28 1016.13 1015.14 1014.28 1013.54 1012.85 1012.16
1035.45 1035.80 1036.11 1036.35 1036.52 1036.59 1036.56 1036.42 1036.19 1035.88 1035.52 1035.14 1034.75 1034.37 1033.98 1033.57 1033.13 1032.64 1032.10 1031.50 1030.87 1030.22 1029.59 1029.01 1028.47 1027.99 1027.52 1027.03 1026.47 1025.78 1024.95 1023.94 1022.79 1021.52 1020.20 1018.89 1017.64 1016.50 1015.48 1014.59 1013.79 1013.05 1012.32
1035.42 1035.81 1036.13 1036.37 1036.51 1036.56 1036.52 1036.39 1036.19 1035.95 1035.67 1035.36 1035.03 1034.67 1034.27 1033.82 1033.31 1032.74 1032.10 1031.43 1030.74 1030.07 1029.43 1028.85 1028.33 1027.86 1027.41 1026.93 1026.39 1025.74 1024.96 1024.03 1022.97 1021.82 1020.61 1019.39 1018.21 1017.10 1016.08 1015.15 1014.29 1013.48 1012.69
1035.36 1035.82 1036.17 1036.41 1036.53 1036.56 1036.50 1036.38 1036.21 1036.01 1035.79 1035.54 1035.26 1034.91 1034.50 1034.01 1033.43 1032.78 1032.07 1031.33 1030.59 1029.89 1029.24 1028.65 1028.14 1027.67 1027.22 1026.75 1026.23 1025.62 1024.91 1024.08 1023.15 1022.14 1021.07 1019.98 1018.90 1017.84 1016.83 1015.86 1014.94 1014.04 1013.17
1035.32 1035.86 1036.26 1036.51 1036.62 1036.62 1036.54 1036.41 1036.25 1036.08 1035.89 1035.68 1035.41 1035.07 1034.64 1034.11 1033.48 1032.76 1031.99 1031.21 1030.43 1029.71 1029.04 1028.45 1027.92 1027.43 1026.97 1026.49 1025.98 1025.41 1024.76 1024.04 1023.25 1022.39 1021.48 1020.54 1019.56 1018.57 1017.56 1016.57 1015.57 1014.60 1013.64
1035.31 1035.94 1036.40 1036.67 1036.78 1036.76 1036.65 1036.49 1036.32 1036.15 1035.97 1035.76 1035.50 1035.15 1034.70 1034.13 1033.46 1032.70 1031.90 1031.08 1030.29 1029.55 1028.87 1028.26 1027.70 1027.18 1026.67 1026.17 1025.64 1025.09 1024.50 1023.88 1023.21 1022.50 1021.74 1020.93 1020.05 1019.12 1018.14 1017.11 1016.06 1015.00 1013.97
1035.35 1036.08 1036.60 1036.90 1037.01 1036.97 1036.83 1036.64 1036.43 1036.23 1036.03 1035.80 1035.51 1035.15 1034.67 1034.08 1033.39 1032.62 1031.80 1030.98 1030.18 1029.43 1028.73 1028.08 1027.48 1026.90 1026.33 1025.76 1025.20 1024.64 1024.08 1023.51 1022.95 1022.36 1021.73 1021.03 1020.25 1019.38 1018.41 1017.37 1016.27 1015.17 1014.08
1035.43 1036.25 1036.83 1037.17 1037.29 1037.23 1037.06 1036.82 1036.57 1036.32 1036.07 1035.80 1035.48 1035.09 1034.59 1033.99 1033.29 1032.52 1031.71 1030.90 1030.10 1029.34 1028.62 1027.92 1027.24 1026.58 1025.91 1025.26 1024.63 1024.02 1023.45 1022.92 1022.42 1021.91 1021.38 1020.78 1020.08 1019.27 1018.33 1017.29 1016.19 1015.06 1013.95
1035.55 1036.43 1037.07 1037.43 1037.56 1037.49 1037.29 1037.01 1036.71 1036.40 1036.10 1035.78 1035.42 1034.99 1034.47 1033.86 1033.17 1032.42 1031.63 1030.84 1030.05 1029.27 1028.51 1027.75 1026.98 1026.21 1025.43 1024.66 1023.92 1023.23 1022.62 1022.09 1021.61 1021.16 1020.70 1020.18 1019.56 1018.80 1017.92 1016.91 1015.83 1014.72 1013.64
1035.66 1036.58 1037.24 1037.63 1037.76 1037.69 1037.47 1037.16 1036.82 1036.47 1036.11 1035.74 1035.33 1034.87 1034.33 1033.72 1033.04 1032.32 1031.56 1030.78 1030.00 1029.20 1028.39 1027.55 1026.68 1025.78 1024.86 1023.96 1023.10 1022.32 1021.64 1021.07 1020.59 1020.17 1019.76 1019.31 1018.76 1018.08 1017.26 1016.32 1015.31 1014.26 1013.24
1035.71 1036.64 1037.31 1037.71 1037.85 1037.78 1037.56 1037.24 1036.87 1036.48 1036.09 1035.67 1035.23 1034.74 1034.19 1033.58 1032.92 1032.22 1031.48 1030.73 1029.94 1029.12 1028.26 1027.33 1026.35 1025.32 1024.26 1023.22 1022.23 1021.35 1020.59 1019.97 1019.48 1019.07 1018.70 1018.31 1017.83 1017.24 1016.52 1015.68 1014.76 1013.81 1012.88
1035.68 1036.58 1037.24 1037.64 1037.79 1037.74 1037.54 1037.23 1036.86 1036.46 1036.03 1035.59 1035.12 1034.61 1034.05 1033.45 1032.80 1032.12 1031.41 1030.66 1029.88 1029.03 1028.11 1027.11 1026.03 1024.88 1023.69 1022.53 1021.43 1020.44 1019.62 1018.95 1018.44 1018.04 1017.70 1017.36 1016.97 1016.47 1015.86 1015.13 1014.33 1013.50 1012.68
1035.56 1036.41 1037.04 1037.43 1037.60 1037.58 1037.40 1037.13 1036.78 1036.39 1035.96 1035.51 1035.02 1034.49 1033.93 1033.33 1032.69 1032.03 1031.34 1030.60 1029.82 1028.95 1028.00 1026.93 1025.77 1024.53 1023.25 1021.99 1020.80 1019.75 1018.86 1018.16 1017.63 1017.24 1016.93 1016.64 1016.31 1015.91 1015.40 1014.79 1014.12 1013.41 1012.71
1035.33 1036.13 1036.72 1037.11 1037.29 1037.31 1037.19 1036.96 1036.65 1036.29 1035.87 1035.42 1034.92 1034.39 1033.82 1033.23 1032.60 1031.96 1031.29 1030.57 1029.79 1028.92 1027.95 1026.85 1025.64 1024.35 1023.01 1021.69 1020.46 1019.36 1018.43 1017.71 1017.17 1016.78 1016.49 1016.24 1015.97 1015.64 1015.23 1014.73 1014.17 1013.57 1012.97
1035.04 1035.77 1036.33 1036.71 1036.93 1036.99 1036.92 1036.75 1036.50 1036.18 1035.79 1035.35 1034.85 1034.31 1033.74 1033.15 1032.54 1031.91 1031.26 1030.57 1029.81 1028.96 1027.99 1026.89 1025.68 1024.38 1023.03 1021.70 1020.45 1019.34 1018.41 1017.67 1017.13 1016.74 1016.45 1016.22 1015.98 1015.70 1015.35 1014.93 1014.46 1013.95 1013.44
1034.72 1035.40 1035.93 1036.31 1036.55 1036.66 1036.66 1036.55 1036.35 1036.07 1035.71 1035.28 1034.79 1034.25 1033.68 1033.09 1032.50 1031.89 1031.27 1030.62 1029.89 1029.07 1028.14 1027.08 1025.90 1024.62 1023.31 1022.01 1020.78 1019.69 1018.77 1018.04 1017.49 1017.09 1016.80 1016.56 1016.32 1016.05 1015.73 1015.35 1014.93 1014.48 1014.03
1034.42 1035.05 1035.56 1035.94 1036.20 1036.36 1036.41 1036.37 1036.22 1035.97 1035.63 1035.22 1034.72 1034.19 1033.62 1033.04 1032.46 1031.88 1031.30 1030.68 1030.01 1029.24 1028.37 1027.37 1026.25 1025.04 1023.79 1022.55 1021.38 1020.33 1019.44 1018.72 1018.17 1017.76 1017.44 1017.18 1016.91 1016.63 1016.30 1015.92 1015.51 1015.09 1014.66
1034.16 1034.76 1035.25 1035.63 1035.92 1036.11 1036.20 1036.20 1036.08 1035.87 1035.54 1035.13 1034.63 1034.09 1033.52 1032.95 1032.39 1031.84 1031.30 1030.73 1030.11 1029.41 1028.61 1027.68 1026.65 1025.53 1024.36 1023.21 1022.11 1021.13 1020.28 1019.59 1019.05 1018.62 1018.28 1017.97 1017.67 1017.34 1016.98 1016.57 1016.15 1015.71 1015.29
1033.97 1034.54 1035.01 1035.39 1035.69 1035.90 1036.01 1036.03 1035.93 1035.72 1035.40 1034.98 1034.48 1033.94 1033.37 1032.81 1032.26 1031.74 1031.23 1030.71 1030.15 1029.51 1028.78 1027.94 1026.99 1025.96 1024.89 1023.83 1022.83 1021.92 1021.14 1020.49 1019.97 1019.54 1019.18 1018.84 1018.49 1018.11 1017.70 1017.25 1016.79 1016.33 1015.89
1033.83 1034.37 1034.82 1035.19 1035.48 1035.69 1035.82 1035.83 1035.74 1035.52 1035.19 1034.76 1034.25 1033.70 1033.13 1032.58 1032.05 1031.55 1031.07 1030.59 1030.07 1029.48 1028.81 1028.03 1027.17 1026.23 1025.26 1024.30 1023.39 1022.57 1021.86 1021.27 1020.79 1020.38 1020.02 1019.66 1019.29 1018.88 1018.43 1017.94 1017.43 1016.93 1016.45
1033.70 1034.21 1034.64 1034.99 1035.27 1035.47 1035.58 1035.58 1035.47 1035.23 1034.88 1034.44 1033.93 1033.37 1032.81 1032.26 1031.75 1031.26 1030.80 1030.34 1029.84 1029.29 1028.65 1027.93 1027.13 1026.26 1025.38 1024.51 1023.70 1022.97 1022.35 1021.84 1021.42 1021.06 1020.73 1020.39 1020.02 1019.60 1019.13 1018.62 1018.08 1017.54 1017.02
1033.55 1034.03 1034.44 1034.77 1035.02 1035.19 1035.28 1035.26 1035.12 1034.86 1034.50 1034.04 1033.52 1032.97 1032.41 1031.87 1031.36 1030.89 1030.43 1029.97 1029.48 1028.93 1028.31 1027.62 1026.85 1026.05 1025.23 1024.44 1023.72 1023.09 1022.56 1022.14 1021.80 1021.51 1021.25 1020.97 1020.64 1020.25 1019.80 1019.29 1018.74 1018.17 1017.61
1033.34 1033.80 1034.18 1034.48 1034.71 1034.86 1034.91 1034.86 1034.70 1034.43 1034.05 1033.59 1033.08 1032.54 1031.99 1031.46 1030.95 1030.48 1030.01 1029.53 1029.03 1028.47 1027.84 1027.14 1026.40 1025.62 1024.86 1024.13 1023.49 1022.94 1022.51 1022.18 1021.94 1021.75 1021.57 1021.37 1021.12 1020.80 1020.39 1019.92 1019.39 1018.82 1018.23
1033.04 1033.48 1033.84 1034.13 1034.33 1034.46 1034.49 1034.42 1034.24 1033.96 1033.59 1033.14 1032.64 1032.12 1031.59 1031.07 1030.57 1030.09 1029.60 1029.10 1028.56 1027.97 1027.31 1026.60 1025.85 1025.09 1024.35 1023.67 1023.08 1022.61 1022.25 1022.01 1021.86 1021.76 1021.68 1021.58 1021.43 1021.20 1020.89 1020.48 1020.00 1019.46 1018.87
1032.65 1033.08 1033.44 1033.71 1033.90 1034.01 1034.03 1033.95 1033.77 1033.50 1033.15 1032.72 1032.25 1031.76 1031.26 1030.76 1030.27 1029.77 1029.27 1028.74 1028.16 1027.52 1026.83 1026.09 1025.32 1024.56 1023.83 1023.17 1022.62 1022.18 1021.88 1021.70 1021.62 1021.60 1021.61 1021.61 1021.56 1021.44 1021.23 1020.92 1020.52 1020.04 1019.49
1032.18 1032.61 1032.97 1033.24 1033.44 1033.55 1033.57 1033.50 1033.34 1033.09 1032.76 1032.38 1031.95 1031.50 1031.04 1030.56 1030.08 1029.58 1029.06 1028.50 1027.88 1027.21 1026.49 1025.71 1024.92 1024.15 1023.41 1022.75 1022.20 1021.78 1021.49 1021.33 1021.28 1021.30 1021.37 1021.44 1021.49 1021.47 1021.37 1021.18 1020.89 1020.51 1020.03
Thickness
5503 5492 5479 5467 5454 5441 5429 5417 5406 5393 5380 5366 5353 5340 5327 5316 5304 5294 5284 5276 5269 5264 5259 5254 5250 5247 5245 5244 5245 5247 5252 5255 5263 5276 5295 5317 5331 5348 5361 5377 5394 5414 5435
5494 5483 5470 5456 5442 5429 5417 5405 5392 5378 5363 5349 5335 5322 5311 5301 5290 5279 5270 5262 5255 5250 5246 5241 5237 5234 5232 5231 5231 5232 5236 5240 5242 5250 5267 5292 5311 5324 5339 5353 5372 5390 5409
5488 5475 5461 5446 5431 5418 5405 5392 5378 5363 5349 5334 5321 5310 5301 5290 5280 5271 5261 5252 5244 5238 5232 5228 5225 5222 5220 5219 5218 5220 5222 5226 5228 5231 5239 5257 5278 5292 5318 5333 5350 5366 5385
5481 5467 5452 5437 5422 5407 5393 5378 5364 5349 5334 5320 5308 5295 5286 5276 5266 5257 5250 5242 5233 5227 5221 5216 5213 5210 5207 5206 5206 5208 5208 5212 5216 5219 5224 5232 5244 5263 5291 5312 5328 5345 5363
5473 5459 5444 5429 5413 5397 5382 5366 5351 5336 5322 5308 5295 5284 5272 5262 5255 5247 5240 5233 5225 5217 5211 5205 5201 5197 5194 5193 5193 5195 5196 5199 5203 5207 5213 5220 5230 5244 5262 5288 5309 5326 5343
5466 5451 5435 5419 5403 5386 5370 5355 5339 5325 5311 5298 5286 5275 5264 5255 5247 5239 5232 5225 5217 5209 5201 5194 5188 5183 5180 5179 5179 5181 5183 5187 5191 5196 5202 5209 5218 5230 5245 5266 5286 5306 5326
5458 5442 5426 5409 5393 5376 5361 5345 5330 5316 5303 5290 5278 5267 5256 5246 5237 5229 5222 5215 5208 5200 5191 5183 5176 5170 5165 5163 5163 5165 5168 5173 5179 5185 5192 5199 5208 5218 5232 5250 5270 5289 5309
5451 5436 5418 5401 5383 5369 5353 5337 5322 5308 5296 5283 5271 5260 5249 5239 5230 5221 5212 5203 5196 5187 5180 5171 5163 5155 5150 5146 5145 5147 5151 5158 5165 5173 5181 5190 5199 5209 5221 5237 5255 5274 5294
5445 5428 5410 5393 5377 5361 5345 5329 5315 5301 5288 5277 5265 5255 5244 5234 5224 5215 5205 5196 5186 5178 5169 5159 5151 5143 5136 5131 5129 5132 5136 5143 5152 5162 5171 5181 5192 5202 5213 5226 5241 5258 5279
5438 5421 5403 5386 5370 5354 5338 5322 5307 5294 5281 5270 5259 5250 5239 5229 5219 5210 5200 5190 5180 5170 5160 5151 5141 5133 5125 5120 5118 5119 5124 5130 5140 5150 5162 5173 5184 5196 5207 5219 5232 5247 5264
5432 5414 5396 5380 5364 5347 5331 5316 5301 5288 5276 5265 5255 5245 5235 5225 5215 5205 5195 5185 5175 5164 5153 5143 5134 5127 5120 5115 5111 5111 5114 5120 5130 5141 5154 5166 5178 5189 5201 5213 5225 5240 5255
5427 5408 5391 5374 5357 5341 5325 5310 5296 5284 5272 5262 5252 5242 5232 5222 5212 5202 5192 5182 5171 5160 5149 5139 5130 5124 5118 5114 5111 5109 5111 5115 5123 5135 5147 5160 5173 5184 5196 5207 5219 5232 5246
5422 5403 5386 5369 5352 5336 5321 5306 5293 5280 5269 5259 5249 5239 5229 5220 5210 5200 5190 5180 5168 5157 5147 5137 5129 5123 5118 5115 5113 5111 5112 5115 5122 5132 5143 5155 5167 5179 5191 5201 5213 5225 5240
5419 5401 5383 5365 5348 5332 5317 5302 5290 5278 5267 5257 5247 5237 5227 5218 5208 5198 5188 5178 5167 5157 5146 5136 5128 5123 5120 5118 5117 5116 5116 5118 5124 5132 5142 5153 5164 5176 5186 5197 5207 5219 5232
5417 5400 5381 5362 5345 5329 5314 5300 5287 5276 5266 5255 5245 5236 5227 5217 5207 5197 5187 5177 5166 5156 5146 5137 5130 5125 5123 5124 5124 5120 5119 5121 5126 5134 5142 5152 5162 5173 5183 5193 5203 5213 5224
5417 5399 5381 5362 5344 5327 5312 5299 5286 5275 5265 5254 5244 5235 5227 5217 5208 5198 5188 5178 5168 5158 5148 5139 5132 5126 5123 5126 5127 5123 5119 5122 5127 5134 5142 5150 5157 5166 5176 5186 5196 5206 5216
5415 5397 5379 5360 5343 5327 5312 5298 5286 5275 5264 5254 5244 5236 5227 5218 5209 5199 5189 5180 5170 5160 5151 5142 5134 5128 5125 5127 5127 5124 5120 5121 5125 5132 5139 5147 5153 5159 5166 5175 5185 5195 5207
5414 5395 5376 5359 5342 5326 5311 5297 5285 5274 5263 5254 5245 5237 5228 5219 5210 5200 5191 5182 5173 5163 5154 5146 5138 5131 5128 5128 5128 5124 5121 5122 5125 5130 5136 5143 5149 5157 5162 5168 5177 5186 5196
5411 5392 5374 5356 5340 5325 5311 5297 5285 5274 5264 5255 5247 5238 5229 5221 5212 5203 5194 5185 5176 5168 5159 5151 5143 5136 5131 5130 5130 5126 5123 5122 5124 5128 5133 5140 5146 5154 5159 5164 5172 5180 5189
5408 5389 5371 5355 5339 5325 5310 5297 5285 5275 5266 5257 5249 5240 5232 5222 5214 5206 5197 5189 5180 5173 5164 5157 5149 5142 5136 5135 5133 5130 5125 5123 5124 5126 5130 5137 5144 5150 5156 5159 5167 5176 5183
5405 5388 5370 5354 5340 5325 5310 5298 5286 5276 5268 5259 5251 5243 5234 5225 5218 5209 5201 5192 5185 5177 5169 5162 5155 5149 5143 5140 5137 5135 5129 5124 5124 5124 5127 5132 5139 5144 5150 5156 5162 5171 5178
5403 5386 5369 5354 5340 5325 5311 5298 5288 5279 5269 5260 5252 5245 5237 5229 5223 5213 5206 5199 5190 5183 5177 5171 5165 5159 5152 5147 5143 5139 5134 5130 5124 5123 5125 5129 5135 5139 5144 5150 5158 5165 5174
5402 5386 5369 5355 5340 5326 5312 5300 5291 5280 5270 5262 5254 5247 5240 5233 5226 5218 5211 5205 5198 5191 5187 5181 5174 5168 5162 5155 5150 5145 5140 5135 5129 5125 5127 5128 5131 5134 5138 5145 5152 5158 5167
5402 5385 5369 5355 5341 5328 5315 5303 5292 5282 5272 5263 5256 5250 5243 5237 5230 5223 5217 5210 5205 5199 5196 5189 5182 5176 5170 5165 5160 5153 5146 5141 5135 5129 5126 5126 5128 5130 5134 5139 5145 5152 5161
5403 5386 5371 5357 5344 5331 5318 5306 5295 5283 5274 5266 5259 5252 5247 5240 5234 5227 5220 5215 5210 5204 5201 5195 5189 5184 5179 5174 5170 5163 5156 5149 5142 5136 5130 5127 5127 5128 5131 5135 5140 5147 5155
5403 5387 5373 5360 5347 5333 5320 5308 5297 5286 5276 5269 5263 5256 5250 5243 5237 5230 5224 5218 5213 5210 5205 5199 5194 5189 5185 5183 5178 5172 5165 5158 5152 5143 5134 5129 5127 5127 5128 5131 5136 5142 5149